Flight Track Log - Related Links

Times and Time Zones

All times are in EDT time to prevent confusion due to time zone crossing. See the SKW5500 flight status page for this flight to view local times or setup timezone preferences in your user account.

Time Position Orientation Groundspeed Altitude Reporting Facility
EDT Latitude Longitude Course Direction KTS MPH feet Rate Location/Type
Thu 06:07:00 PM 39.2517 -106.8753 123° Southeast 175 201 9,300  Level Denver Center
Thu 06:08:02 PM 39.2758 -106.9533 292° West 256 295 11,600 2,661 Climbing Denver Center
Thu 06:09:00 PM 39.4089 -106.7994 101° East  Level FlightAware Approximate
Thu 06:09:04 PM 39.3247 -107.0136 316° Northwest 274 315 14,800  Level Denver Center
Thu 06:10:00 PM 39.3902 -106.6777 101° East  Level FlightAware Approximate
Thu 06:10:06 PM 39.3628 -106.9403 56° Northeast 280 322 17,700  Level Denver Center
Thu 06:11:00 PM 39.3681 -106.5570 104° East  Level FlightAware Approximate
Thu 06:11:08 PM 39.3664 -106.8131 88° East 299 344 20,700  Level Denver Center
Thu 06:12:00 PM 39.3371 -106.4408 123° Southeast  Level FlightAware Approximate
Thu 06:12:10 PM 39.3692 -106.6900 88° East 344 396 21,000  Level Denver Center
Thu 06:13:12 PM 39.3731 -106.5275 88° East 399 459 21,000  Level Denver Center
Thu 06:14:14 PM 39.3767 -106.3919 88° East 396 456 21,000  Level Denver Center
Thu 06:15:16 PM 39.3808 -106.2328 88° East 396 456 21,000  Level Denver Center
Thu 06:16:19 PM 39.3825 -106.1108 89° East 394 453 21,000  Level Denver Center
Thu 06:17:21 PM 39.3872 -105.9528 88° East 371 427 21,000 -242 Level Denver Center
Thu 06:18:23 PM 39.3889 -105.8256 89° East 357 411 20,500 -823 Descending Denver Center
Thu 06:19:25 PM 39.3917 -105.6978 88° East 358 412 19,300 -1,161 Descending Denver Center
Thu 06:20:27 PM 39.3933 -105.5717 89° East 354 407 18,100 -629 Descending Denver Center
Thu 06:21:29 PM 39.3975 -105.4333 88° East 359 413 18,000 -774 Descending Denver Center
Thu 06:22:31 PM 39.4036 -105.2897 87° East 374 430 16,500 -1,403 Descending Denver Center
Thu 06:23:33 PM 39.4089 -105.1708 87° East 339 390 15,100 -1,355 Descending Denver Center
Thu 06:24:35 PM 39.4147 -105.0561 86° East 300 345 13,700 -1,065 Descending Denver Center
Thu 06:25:37 PM 39.4197 -104.9569 86° East 279 321 12,900 -677 Descending Denver Center
Thu 06:26:39 PM 39.4494 -104.8656 67° East 256 295 12,300 -629 Descending Denver Center
Thu 06:27:41 PM 39.4900 -104.7969 53° Northeast 254 292 11,600 -581 Descending Denver Center
Thu 06:28:43 PM 39.5531 -104.7586 25° Northeast 253 291 11,100 -774 Descending Denver Center
Thu 06:29:45 PM 39.6231 -104.7189 24° Northeast 254 292 10,000 -1,113 Descending Denver Center
Thu 06:30:47 PM 39.6744 -104.6861 26° Northeast 208 239 8,800 -1,258 Descending Denver Center
Thu 06:31:49 PM 39.7239 -104.6536 27° Northeast 188 216 7,400 -1,355 Descending Denver Center

Login

Don't have an account? Register now (free) for customized features, flight alerts, and more!